Regional Weather Roundup
Issued by NWS Sioux Falls, SD

Home | Current Version | Previous Version | Text Only | Print | Product List | Glossary On
Versions: 1 2 3 4 5 6 7 8 9 10 11 12 13 14 15 16 17 18 19 20 21 22 23 24 25 26 27 28 29 30 31 32 33 34 35 36 37 38 39 40 41 42 43 44 45 46 47 48 49 50
000
ASUS43 KFSD 260110
RWRFSD

WEATHER ROUNDUP FOR SE SOUTH DAKOTA/SW MINNESOTA/NW IOWA
NATIONAL WEATHER SERVICE SIOUX FALLS SD
800 PM CDT SUN JUN 25 2017

NOTE: "FAIR" INDICATES FEW OR NO CLOUDS BELOW 12,000 FEET WITH NO
SIGNIFICANT WEATHER AND OR OBSTRUCTIONS TO VISIBILITY.


SDZ038>040-050-052>070-260200-
SOUTHEAST SOUTH DAKOTA

CITY           SKY/WX    TMP DP  RH WIND       PRES   REMARKS
BROOKINGS      PTSUNNY   60  45  57 NE9       30.20F
CHAMBERLAIN    MOSUNNY   77  41  27 SE5       30.14S
HURON          MOSUNNY   66  47  50 E10       30.15F
MADISON        FAIR      64  45  48 NE5       30.20S
MITCHELL       PTSUNNY   71  45  39 N9        30.18R
SIOUX FALLS    MOSUNNY   70  48  45 N6        30.18F
WINNER         FAIR      79  37  22 S10       30.15F
YANKTON        SUNNY     71  43  36 SE8       30.18F
$$

MNZ071-072-080-081-089-090-097-098-260200-
SOUTHWEST MINNESOTA

CITY           SKY/WX    TMP DP  RH WIND       PRES   REMARKS
FAIRMONT       CLOUDY    65  42  43 NW9       30.19F
JACKSON        FLURRIES  63  43  48 NW10      30.21F
LUVERNE        MOSUNNY   68  37  32 N6        30.20F
MARSHALL       CLOUDY    62  44  51 NW14      30.19S
MONTEVIDEO     MOSUNNY   64  46  52 N3        30.17F
PIPESTONE      PTSUNNY   64  45  48 NE6       30.20F
REDWOOD FALLS  MOCLDY    64  46  52 N5        30.17S
TRACY          CLOUDY    64  45  50 NW10      30.20F
WINDOM         PTCLDY    64  39  39 NW14G20   30.20F
WORTHINGTON    CLOUDY    63  44  50 N13       30.22S
$$

IAZ001>003-012>014-020>022-031-032-NEZ013-014-SDZ071-260200-
NORTHWEST IOWA

CITY           SKY/WX    TMP DP  RH WIND       PRES   REMARKS
CHEROKEE       CLEAR     68  43  40 NW7       30.20F
DENISON        CLEAR     70  43  37 NW6       30.23S
ESTHERVILLE    CLOUDY    64  43  46 N10       30.20S
LE MARS        SUNNY     72  43  35 N5        30.21S
ORANGE CITY    SUNNY     68  45  42 NW5       30.21F
SHELDON        CLEAR     68  41  37 MISG      30.19F
SIOUX CITY     SUNNY     73  41  31 NW6       30.20F
SPENCER        MOCLDY    68  43  40 N10       30.20F
STORM LAKE     CLEAR     70  39  32 NW10      30.21F
$$

ABBREVIATIONS USED IN REMARKS
   TC - TEMPERATURE IN CELSIUS
  WCI - WIND CHILL INDEX
   HX - HEAT INDEX
  VSB - VISIBILITY





USA.gov is the U.S. government's official web portal to all federal, state and local government web resources and services.